Regional Weather Roundup
Issued by NWS

Home | Current Version | Previous Version | Text Only | Print | Product List | Glossary Off
Versions: 1 2 3 4 5 6 7 8 9 10 11 12 13 14 15 16 17 18 19 20 21 22 23 24 25 26 27 28 29 30 31 32 33 34 35 36 37 38 39 40 41 42 43 44 45 46 47 48 49 50

000
ASUS43 KFSD 210310
RWRSD

WEATHER ROUNDUP FOR SOUTH DAKOTA
NATIONAL WEATHER SERVICE SIOUX FALLS SD
900 PM CST TUE FEB 20 2018

NOTE: "FAIR" INDICATES FEW OR NO CLOUDS BELOW 12,000 FEET WITH NO
SIGNIFICANT WEATHER AND/OR OBSTRUCTIONS TO VISIBILITY.


SDZ001>005-009-010-012>017-210400-
NORTHWEST AND NORTH CENTRAL SOUTH DAKOTA

CITY           SKY/WX    TMP DP  RH WIND       PRES   REMARKS
BUFFALO          N/A     -5 -13  68 NW16      30.09S WCI -27
FAITH            N/A     -4 -10  75 SW12      30.23R WCI -22
MOBRIDGE       CLEAR      1  -8  66 W7        30.26R WCI -12
$$

SDZ012>016-024>037-041>051-057-063-072>074-210400-
SOUTHWEST AND SOUTH CENTRAL SOUTH DAKOTA

CITY           SKY/WX    TMP DP  RH WIND       PRES   REMARKS
RAPID CTY ARPT CLEAR    -10 -14  82 CALM      30.20R
PIERRE         CLEAR      0  -6  76 W8        30.33R WCI -14
CUSTER         CLEAR     -1 -12  59 CALM      29.98R
ELLSWORTH AFB  CLEAR     -3  -8  78 W3        30.18R
PHILIP         CLEAR     -8 -12  83 W10       30.31R WCI -26
PINE RIDGE     CLEAR    -13 -17  82 CALM      30.22R
SPEARFISH        N/A      1 -11  55 W8        30.13S WCI -12
WINNER         FAIR      -1  -8  72 SW6       30.35R WCI -13
$$

SDZ004>011-016>023-039-040-210400-
NORTHEAST SOUTH DAKOTA

CITY           SKY/WX    TMP DP  RH WIND       PRES   REMARKS
ABERDEEN       CLEAR     -4  -9  79 W10       30.33R WCI -21
WATERTOWN      CLOUDY    -1  -5  82 W12       30.28R WCI -18
BROOKINGS      CLEAR      2  -3  80 W10       30.31R WCI -14
SISSETON         N/A      5  -3  69 W13       30.29R WCI -12
$$

SDZ017-020-022-023-036>040-048>070-210400-
SOUTHEAST SOUTH DAKOTA

CITY           SKY/WX    TMP DP  RH WIND       PRES   REMARKS
SIOUX FALLS    CLOUDY     4  -2  76 W7        30.34R WCI  -8
HURON          CLEAR      0  -5  79 W10       30.37R WCI -16
CHAMBERLAIN    CLEAR      1  -4  81 SW6       30.37R WCI -11
MITCHELL       CLEAR      4  -2  76 W10       30.39R WCI -11
YANKTON        CLOUDY     5  -1  76 W7        30.40R WCI  -7
$$

ABBREVIATIONS USED IN REMARKS
   TC - TEMPERATURE IN CELSIUS
  WCI - WIND CHILL INDEX
   HX - HEAT INDEX
  VSB - VISIBILITY




USA.gov is the U.S. government's official web portal to all federal, state and local government web resources and services.